User: anonymous   Login
Location: Newark
(35.9031°N, 139.7175°E)
Time: 07:17:03
(UTC+00:00)
Language:

Tiros 1 - Orbit

View from above orbital plane
View from above orbital plane
View from above satellite
View from above satellite

Ground track
Ground track

The orbit data is extracted from the following two-line orbital elements,

1    29U 60002B   20147.03395169 -.00000144  00000-0  96258-5 0  9994
2    29  48.3807  54.4215 0023619 137.2765 222.9988 14.74356599215355
Epoch (UTC): 26 May 2020 00:48:53
Eccentricity: 0.0023619
inclination: 48.3807°
perigee height: 630 km
apogee height: 664 km
right ascension of ascending node: 54.4215°
argument of perigee: 137.2765°
revolutions per day: 14.74356599
mean anomaly at epoch: 222.9988°
orbit number at epoch: 21535

The dashed part of the orbit path shows where the satellite is in the earth's shadow,  

DLR